Location: Unspecified
(0.0000°N, 0.0000°E)
Time: 20:25:58
(UTC+00:00)

Envisat - Visible Passes

Search period start: 25 September 2020 00:00
Search period end: 05 October 2020 00:00
Orbit: 764 x 766 km, 98.1° (Epoch: 25 September)

Date Brightness Start Highest point End Pass type
(mag) Time Alt. Az. Time Alt. Az. Time Alt. Az.
25 Sep 4.0 05:22:53 10° NNE 05:27:49 53° ESE 05:32:45 10° S visible
26 Sep 6.0 04:47:40 10° ENE 04:51:09 19° ESE 04:54:37 10° SE visible
27 Sep 5.3 18:19:54 10° SSW 18:24:17 29° WSW 18:28:38 10° NW visible
28 Sep 4.7 05:11:48 10° NE 05:16:29 38° ESE 05:21:11 10° S visible
29 Sep 6.2 04:37:23 10° ENE 04:39:49 13° ESE 04:42:15 10° SE visible
29 Sep 6.2 18:47:00 10° SW 18:49:37 14° WSW 18:52:14 10° WNW visible
30 Sep 4.7 18:08:13 10° S 18:12:57 40° WSW 18:17:40 10° NNW visible
01 Oct 5.3 05:00:51 10° NE 05:05:10 28° ESE 05:09:28 10° SSE visible
02 Oct 6.0 18:34:43 10° SSW 18:38:18 19° WSW 18:41:52 10° WNW visible
04 Oct 5.8 04:50:06 10° NE 04:53:50 21° ESE 04:57:35 10° SSE visible
